Location: Bremen
(53.0833°N, 8.8000°E)
Time: 13:43:25
(UTC+02:00)

ISS - Pass Details

Date: 02 May 2025
Orbit: 416 x 419 km, 51.6° (Epoch: 14 May)

Event Time Altitude Azimuth Distance (km) Brightness Sun altitude
Exits shadow 04:34:01 - 266° (W) 1,536 -1.4 -10.0°
Reaches altitude 10° 04:34:06 10° 266° (W) 1,496 -1.4 -10.0°
Maximum altitude 04:37:27 69° 183° (S) 450 -3.8 -9.7°
Drops below altitude 10° 04:40:47 10° 99° (E) 1,497 -0.4 -9.3°
Sets 04:42:54 0° 97° (E) 2,361 0.7 -9.1°
